This is the latest recevied weather packets stored in our database for station/object WA1NHP. If no packets are shown the sender has not sent any weather packets the latest 10 day(s).
| Time | Temp. | Humidity | Pressure | Rain* | Wind** | Luminosity | Snow |
|---|---|---|---|---|---|---|---|
| 1788457444 | 23.89° C | 86% | 1023.9 hPa | 0 mm | - | 1032 W/m² | - |
| 1788456844 | 22.78° C | 86% | 1023.9 hPa | 0 mm | - | 359 W/m² | - |
| 1788456243 | 22.22° C | 87% | 1023.9 hPa | 0 mm | - | 334 W/m² | - |
| 1788455643 | 22.22° C | 88% | 1023.9 hPa | 0 mm | - | 355 W/m² | - |
| 1788455043 | 22.22° C | 91% | 1023.9 hPa | 0 mm | - | 348 W/m² | - |
| 1788454443 | 21.67° C | 92% | 1023.9 hPa | 0 mm | - | 218 W/m² | - |
| 1788453844 | 21.11° C | 93% | 1023.9 hPa | 0 mm | - | 250 W/m² | - |
| 1788453243 | 21.11° C | 92% | 1023.9 hPa | 0 mm | - | 130 W/m² | - |
| 1788452643 | 21.67° C | 91% | 1023.9 hPa | 0 mm | - | 156 W/m² | - |
| 1788452044 | 21.67° C | 92% | 1023.9 hPa | 0 mm | - | 255 W/m² | - |
| 1788451443 | 21.67° C | 94% | 1023.9 hPa | 0 mm | - | 684 W/m² | - |
| 1788450844 | 21.11° C | 94% | 1023.9 hPa | 0 mm | - | 417 W/m² | - |
| 1788450243 | 20° C | 96% | 1023.9 hPa | 0 mm | - | 378 W/m² | - |
| 1788449644 | 20° C | 97% | 1023.9 hPa | 0 mm | - | 295 W/m² | - |
| 1788449044 | 19.44° C | 98% | 1023.9 hPa | 0 mm | - | 260 W/m² | - |
| 1788448443 | 19.44° C | 98% | 1023.9 hPa | 0 mm | - | 209 W/m² | - |
| 1788447844 | 18.89° C | 99% | 1023.9 hPa | 0 mm | - | 225 W/m² | - |
| 1788447244 | 18.89° C | 99% | 1023.9 hPa | 0 mm | - | 244 W/m² | - |
| 1788446644 | 18.33° C | 99% | 1023.9 hPa | 0 mm | - | 214 W/m² | - |
| 1788446044 | 17.78° C | 99% | 1023.9 hPa | 0 mm | - | 160 W/m² | - |
| 1788445443 | 17.78° C | 99% | 1023.9 hPa | 0 mm | - | 146 W/m² | - |
| 1788444844 | 17.78° C | 99% | 1023.9 hPa | 0 mm | - | 127 W/m² | - |
| 1788444245 | 17.78° C | 99% | 1023.9 hPa | 0 mm | - | 104 W/m² | - |
| 1788443645 | 17.22° C | 99% | 1023.9 hPa | 0 mm | - | 155 W/m² | - |
| 1788443044 | 17.22° C | 98% | 1023.9 hPa | 0 mm | - | 62 W/m² | - |
* Rain latest hour (hover to see other rain measurements)
** Current wind speed in m/s (hover to see current wind gust speed)